User: anonymous   Login
Location: Deer Lodge Site
(39.6809°N, 119.9392°W)
Time: 17:23:10
(UTC-08:00)
Language:

CZ-4C R/B - Orbit

View from above orbital plane
View from above orbital plane
View from above satellite
View from above satellite

Ground track
Ground track

The orbit data is extracted from the following two-line orbital elements,

1 36416U 10009D   16036.72599630 -.00000064 +00000-0 +24901-4 0  9998
2 36416 063.4441 157.4608 0338278 357.8412 002.1147 13.69490333296087
Epoch (UTC): 05 February 2016 17:25:26
Eccentricity: 0.0338278
inclination: 63.4441°
perigee height: 752 km
apogee height: 1251 km
right ascension of ascending node: 157.4608°
argument of perigee: 357.8412°
revolutions per day: 13.69490333
mean anomaly at epoch: 2.1147°
orbit number at epoch: 29608

The dashed part of the orbit path shows where the satellite is in the earth's shadow,  

DLR